User: anonymous   Login
Location: Coffee Creek Observatory
(38.8077°N, 94.7179°W)
Time: 20:17:15
(UTC-06:00)
Language:

Lacrosse 4 Rocket - Orbit

View from above orbital plane
View from above orbital plane
View from above satellite
View from above satellite

Ground track
Ground track

The orbit data is extracted from the following two-line orbital elements,

1 26474U 00047B   14323.38797211  .00004610  00000-0  43078-3 0  7966
2 26474 067.9969 277.4777 0064981 276.0834 083.2905 14.93449383774777
Epoch (UTC): 19 November 2014 09:18:40
Eccentricity: 0.0064981
inclination: 67.9969°
perigee height: 542 km
apogee height: 632 km
right ascension of ascending node: 277.4777°
argument of perigee: 276.0834°
revolutions per day: 14.93449383
mean anomaly at epoch: 83.2905°
orbit number at epoch: 77477

The dashed part of the orbit path shows where the satellite is in the earth's shadow,  

DLR